| time (UTC) | temp C | wind direction | speed KPH | gust KPH | rain 1hr cm | rain 24hr cm | rain mn cm | humidity % | barometer mb |
| 20260508033602 | 6 | 64 | 1.6 | 8.0 | 0.00 | 2.77 | 0.00 | 99 | 1001.9 |
| 20260508032555 | 6 | 327 | 1.6 | 6.4 | 0.00 | 2.77 | 0.00 | 99 | 1001.9 |
| 20260508032050 | 6 | 21 | 0.0 | 6.4 | 0.00 | 2.77 | 0.00 | 99 | 1001.9 |
| 20260508031051 | 6 | 3 | 0.0 | 6.4 | 0.00 | 2.77 | 0.00 | 99 | 1002.0 |
| 20260508030114 | 6 | 337 | 1.6 | 6.4 | 0.03 | 2.77 | 0.00 | 99 | 1001.9 |
| 20260508025558 | 7 | 337 | 1.6 | 8.0 | 0.03 | 2.77 | 2.77 | 99 | 1001.9 |
| 20260508024605 | 7 | 309 | 1.6 | 6.4 | 0.05 | 2.77 | 2.77 | 99 | 1001.6 |
| 20260508023552 | 7 | 125 | 1.6 | 4.8 | 0.05 | 2.77 | 2.77 | 99 | 1001.8 |
| 20260508022602 | 7 | 196 | 1.6 | 3.2 | 0.05 | 2.77 | 2.77 | 99 | 1002.1 |
| 20260508022049 | 7 | 335 | 0.0 | 1.6 | 0.05 | 2.77 | 2.77 | 99 | 1001.8 |
| 20260508021058 | 7 | 335 | 0.0 | 6.4 | 0.10 | 2.77 | 2.77 | 99 | 1001.9 |
| 20260508020103 | 7 | 347 | 1.6 | 6.4 | 0.10 | 2.77 | 2.77 | 99 | 1002.2 |
| 20260508015550 | 7 | 347 | 0.0 | 6.4 | 0.10 | 2.77 | 2.77 | 99 | 1002.2 |
| 20260508015044 | 7 | 347 | 1.6 | 6.4 | 0.10 | 2.77 | 2.77 | 99 | 1002.4 |
| 20260508014059 | 7 | 347 | 0.0 | 9.7 | 0.10 | 2.74 | 2.74 | 99 | 1002.3 |
| 20260508013115 | 7 | 327 | 4.8 | 9.7 | 0.10 | 2.72 | 2.72 | 98 | 1002.0 |
| 20260508012556 | 7 | 347 | 3.2 | 11.3 | 0.13 | 2.72 | 2.72 | 99 | 1002.1 |
| 20260508012050 | 7 | 288 | 4.8 | 11.3 | 0.13 | 2.72 | 2.72 | 98 | 1002.0 |
| 20260508011058 | 7 | 42 | 3.2 | 9.7 | 0.13 | 2.67 | 2.67 | 98 | 1002.1 |
| 20260508010105 | 7 | 350 | 4.8 | 9.7 | 0.18 | 2.64 | 2.64 | 98 | 1002.1 |
| 20260508005103 | 7 | 347 | 1.6 | 6.4 | 0.25 | 2.64 | 2.64 | 98 | 1002.1 |
| 20260508004559 | 7 | 97 | 0.0 | 6.4 | 0.28 | 2.64 | 2.64 | 98 | 1002.1 |
| 20260508003556 | 7 | 216 | 0.0 | 3.2 | 0.38 | 2.64 | 2.64 | 98 | 1002.1 |
| 20260508003059 | 7 | 220 | 0.0 | 3.2 | 0.43 | 2.62 | 2.62 | 98 | 1002.2 |
| 20260508002050 | 7 | 242 | 0.0 | 6.4 | 0.51 | 2.59 | 2.59 | 98 | 1002.2 |
| 20260508001110 | 7 | 243 | 4.8 | 9.7 | 0.48 | 2.54 | 2.54 | 98 | 1002.0 |
| 20260508000057 | 7 | 276 | 3.2 | 9.7 | 0.43 | 2.49 | 2.49 | 98 | 1001.9 |
| 20260507235056 | 7 | 166 | 6.4 | 14.5 | 0.33 | 2.39 | 2.39 | 97 | 1001.8 |
| 20260507234543 | 7 | 216 | 8.0 | 19.3 | 0.30 | 2.36 | 2.36 | 97 | 1001.7 |
| 20260507233600 | 6 | 223 | 11.3 | 20.9 | 0.18 | 2.24 | 2.24 | 96 | 1001.6 |
| 20260507232600 | 7 | 227 | 11.3 | 24.1 | 0.05 | 2.11 | 2.11 | 95 | 1001.5 |
| 20260507231556 | 7 | 278 | 9.7 | 24.1 | 0.00 | 2.06 | 2.06 | 92 | 1001.4 |
| 20260507230603 | 10 | 235 | 6.4 | 30.6 | 0.00 | 2.06 | 2.06 | 87 | 1001.3 |
| 20260507225605 | 12 | 247 | 17.7 | 38.6 | 0.00 | 2.06 | 2.06 | 90 | 1000.8 |
| 20260507225105 | 12 | 237 | 17.7 | 40.2 | 0.00 | 2.06 | 2.06 | 90 | 1000.7 |
| 20260507224600 | 12 | 232 | 16.1 | 37.0 | 0.00 | 2.06 | 2.06 | 90 | 1000.6 |
| 20260507224051 | 12 | 229 | 19.3 | 37.0 | 0.00 | 2.06 | 2.06 | 90 | 1000.6 |
| 20260507223100 | 12 | 208 | 17.7 | 40.2 | 0.00 | 2.06 | 2.06 | 90 | 1000.5 |
| 20260507222104 | 12 | 200 | 17.7 | 41.8 | 0.00 | 2.06 | 2.06 | 91 | 1000.6 |
| 20260507221544 | 12 | 225 | 22.5 | 40.2 | 0.00 | 2.06 | 2.06 | 91 | 1000.6 |
| 20260507220602 | 12 | 210 | 17.7 | 40.2 | 0.00 | 2.06 | 2.06 | 91 | 1000.5 |
| 20260507220051 | 12 | 212 | 20.9 | 40.2 | 0.00 | 2.06 | 2.06 | 92 | 1000.5 |
| 20260507215100 | 11 | 193 | 17.7 | 32.2 | 0.00 | 2.06 | 2.06 | 92 | 1000.4 |
| 20260507214100 | 12 | 200 | 17.7 | 41.8 | 0.00 | 2.06 | 2.06 | 92 | 1000.3 |
| 20260507213559 | 12 | 202 | 20.9 | 37.0 | 0.00 | 2.06 | 2.06 | 92 | 1000.3 |
| 20260507213056 | 11 | 215 | 20.9 | 37.0 | 0.00 | 2.06 | 2.06 | 93 | 1000.2 |
| 20260507212557 | 12 | 157 | 20.9 | 37.0 | 0.00 | 2.06 | 2.06 | 92 | 1000.1 |
| 20260507211552 | 12 | 190 | 24.1 | 45.1 | 0.00 | 2.06 | 2.06 | 92 | 1000.1 |
| 20260507210602 | 11 | 210 | 22.5 | 48.3 | 0.03 | 2.06 | 2.06 | 94 | 1000.1 |
| 20260507205600 | 11 | 200 | 27.4 | 45.1 | 0.05 | 2.06 | 2.06 | 95 | 1000.0 |
| 20260507204600 | 11 | 178 | 22.5 | 46.7 | 0.15 | 2.06 | 2.06 | 97 | 1000.1 |
| 20260507203559 | 10 | 178 | 25.7 | 43.5 | 0.23 | 2.06 | 2.06 | 97 | 999.8 |
| 20260507203101 | 10 | 206 | 27.4 | 43.5 | 0.25 | 2.06 | 2.06 | 97 | 999.6 |
| 20260507202058 | 10 | 185 | 29.0 | 48.3 | 0.30 | 2.06 | 2.06 | 97 | 999.1 |
| 20260507201558 | 10 | 221 | 33.8 | 49.9 | 0.33 | 2.06 | 2.06 | 97 | 998.9 |
| 20260507200547 | 10 | 158 | 37.0 | 59.5 | 0.38 | 2.03 | 2.03 | 97 | 998.5 |
| 20260507195556 | 10 | 142 | 35.4 | 54.7 | 0.43 | 2.01 | 2.01 | 97 | 999.3 |
| 20260507194554 | 10 | 173 | 30.6 | 56.3 | 0.41 | 1.93 | 1.93 | 97 | 999.8 |
| 20260507193106 | 11 | 208 | 19.3 | 35.4 | 0.36 | 1.78 | 1.78 | 97 | 1001.7 |
| 20260507192100 | 11 | 221 | 20.9 | 37.0 | 0.41 | 1.75 | 1.75 | 97 | 1002.2 |
| 20260507191600 | 11 | 208 | 20.9 | 43.5 | 0.43 | 1.73 | 1.73 | 97 | 1002.1 |
| 20260507191054 | 11 | 229 | 25.7 | 49.9 | 0.43 | 1.65 | 1.65 | 97 | 1002.0 |
| 20260507185548 | 11 | 202 | 29.0 | 48.3 | 0.56 | 1.57 | 1.57 | 97 | 1002.3 |
| 20260507184606 | 11 | 144 | 30.6 | 57.9 | 0.71 | 1.52 | 1.52 | 97 | 1002.2 |
| 20260507183543 | 11 | 188 | 35.4 | 59.5 | 1.07 | 1.45 | 1.45 | 97 | 1001.8 |
| 20260507182604 | 11 | 179 | 46.7 | 67.6 | 1.27 | 1.37 | 1.37 | 97 | 1001.8 |
| 20260507182057 | 11 | 210 | 45.1 | 74.0 | 1.27 | 1.32 | 1.32 | 97 | 1001.9 |
| 20260507181548 | 11 | 205 | 45.1 | 74.0 | 1.22 | 1.27 | 1.27 | 97 | 1001.8 |
| 20260507180603 | 11 | 185 | 48.3 | 74.0 | 1.14 | 1.17 | 1.17 | 97 | 1001.8 |
| 20260507180056 | 11 | 247 | 43.5 | 67.6 | 1.09 | 1.09 | 1.09 | 97 | 1002.0 |
| 20260507175101 | 11 | 170 | 19.3 | 37.0 | 0.91 | 0.91 | 0.91 | 97 | 1002.9 |
| 20260507174055 | 12 | 224 | 25.7 | 51.5 | 0.53 | 0.53 | 0.53 | 97 | 1002.5 |
| 20260507173104 | 12 | 185 | 29.0 | 57.9 | 0.20 | 0.20 | 0.20 | 96 | 1002.4 |
| 20260507172550 | 12 | 204 | 27.4 | 57.9 | 0.10 | 0.10 | 0.10 | 95 | 1002.1 |
| 20260507171624 | 12 | 221 | 25.7 | 53.1 | 0.05 | 0.05 | 0.05 | 94 | 1001.8 |
| 20260507170556 | 12 | 198 | 32.2 | 56.3 | 0.03 | 0.03 | 0.03 | 93 | 1001.6 |
| 20260507165552 | 13 | 196 | 35.4 | 56.3 | 0.00 | 0.00 | 0.00 | 92 | 1001.7 |
| 20260507164603 | 14 | 200 | 37.0 | 64.4 | 0.00 | 0.00 | 0.00 | 86 | 1002.2 |
| 20260507164052 | 14 | 194 | 32.2 | 64.4 | 0.00 | 0.00 | 0.00 | 84 | 1002.1 |
| 20260507163101 | 15 | 213 | 43.5 | 66.0 | 0.00 | 0.00 | 0.00 | 83 | 1001.5 |
| 20260507162101 | 15 | 202 | 38.6 | 74.0 | 0.00 | 0.00 | 0.00 | 83 | 1002.1 |
| 20260507161101 | 14 | 166 | 37.0 | 72.4 | 0.00 | 0.00 | 0.00 | 84 | 1002.3 |
| 20260507160101 | 15 | 210 | 48.3 | 78.9 | 0.00 | 0.00 | 0.00 | 84 | 1001.8 |
| 20260507155127 | 15 | 227 | 46.7 | 74.0 | 0.00 | 0.00 | 0.00 | 82 | 1002.1 |
| 20260507154042 | 15 | 178 | 48.3 | 77.2 | 0.00 | 0.00 | 0.00 | 79 | 1002.1 |
| 20260507153104 | 15 | 214 | 54.7 | 86.9 | 0.00 | 0.00 | 0.00 | 77 | 1001.8 |
| 20260507152558 | 15 | 194 | 46.7 | 78.9 | 0.00 | 0.00 | 0.00 | 79 | 1002.7 |
| 20260507151608 | 15 | 198 | 51.5 | 77.2 | 0.00 | 0.00 | 0.00 | 79 | 1002.0 |
| 20260507150601 | 15 | 201 | 53.1 | 80.5 | 0.00 | 0.00 | 0.00 | 80 | 1002.8 |
| 20260507145607 | 15 | 250 | 59.5 | 80.5 | 0.00 | 0.00 | 0.00 | 79 | 1002.6 |
| 20260507144603 | 15 | 220 | 53.1 | 72.4 | 0.00 | 0.00 | 0.00 | 80 | 1003.0 |
| 20260507144059 | 15 | 216 | 48.3 | 80.5 | 0.00 | 0.00 | 0.00 | 80 | 1003.3 |
| 20260507143052 | 14 | 183 | 53.1 | 85.3 | 0.00 | 0.00 | 0.00 | 81 | 1002.3 |
| 20260507142548 | 14 | 191 | 59.5 | 85.3 | 0.00 | 0.00 | 0.00 | 80 | 1003.2 |
| 20260507142039 | 15 | 223 | 53.1 | 80.5 | 0.00 | 0.00 | 0.00 | 80 | 1002.8 |
| 20260507141100 | 14 | 182 | 51.5 | 74.0 | 0.00 | 0.00 | 0.00 | 81 | 1003.4 |
| 20260507140549 | 14 | 174 | 48.3 | 74.0 | 0.00 | 0.00 | 0.00 | 81 | 1003.5 |
| 20260507135548 | 14 | 203 | 54.7 | 95.0 | 0.00 | 0.00 | 0.00 | 81 | 1003.3 |
| 20260507134559 | 15 | 198 | 46.7 | 70.8 | 0.00 | 0.00 | 0.00 | 81 | 1004.1 |
| 20260507133600 | 14 | 195 | 46.7 | 72.4 | 0.00 | 0.00 | 0.00 | 83 | 1003.4 |
| 20260507132558 | 14 | 196 | 41.8 | 69.2 | 0.00 | 0.00 | 0.00 | 84 | 1003.9 |
| 20260507132055 | 14 | 164 | 45.1 | 74.0 | 0.00 | 0.00 | 0.00 | 84 | 1003.9 |
| 20260507130558 | 15 | 216 | 43.5 | 70.8 | 0.00 | 0.00 | 0.00 | 82 | 1004.2 |
| 20260507130048 | 15 | 189 | 40.2 | 72.4 | 0.00 | 0.00 | 0.00 | 84 | 1003.8 |
| 20260507125101 | 15 | 220 | 40.2 | 67.6 | 0.00 | 0.00 | 0.00 | 84 | 1004.3 |
| 20260507124100 | 14 | 213 | 41.8 | 67.6 | 0.00 | 0.00 | 0.00 | 85 | 1004.4 |
| 20260507123113 | 13 | 222 | 45.1 | 75.6 | 0.00 | 0.00 | 0.00 | 86 | 1004.5 |
| 20260507122054 | 13 | 184 | 45.1 | 74.0 | 0.00 | 0.00 | 0.00 | 87 | 1004.2 |
| 20260507121059 | 13 | 200 | 49.9 | 70.8 | 0.00 | 0.00 | 0.00 | 87 | 1004.1 |
| 20260507120555 | 13 | 256 | 46.7 | 78.9 | 0.00 | 0.00 | 0.00 | 86 | 1004.3 |
| 20260507115600 | 13 | 208 | 40.2 | 78.9 | 0.00 | 0.00 | 0.00 | 87 | 1004.7 |
| 20260507115047 | 13 | 155 | 49.9 | 78.9 | 0.00 | 0.00 | 0.00 | 87 | 1005.0 |
| 20260507114104 | 13 | 177 | 40.2 | 72.4 | 0.00 | 0.00 | 0.00 | 88 | 1005.2 |
| 20260507113548 | 13 | 172 | 43.5 | 77.2 | 0.00 | 0.00 | 0.00 | 87 | 1005.7 |
| 20260507112608 | 13 | 218 | 48.3 | 72.4 | 0.00 | 0.00 | 0.00 | 87 | 1005.2 |
| 20260507111606 | 13 | 179 | 46.7 | 72.4 | 0.00 | 0.00 | 0.00 | 87 | 1005.5 |
| 20260507111104 | 13 | 191 | 49.9 | 74.0 | 0.00 | 0.00 | 0.00 | 87 | 1005.4 |
| 20260507110100 | 13 | 189 | 40.2 | 62.8 | 0.00 | 0.00 | 0.00 | 88 | 1005.7 |
| 20260507105049 | 13 | 197 | 41.8 | 69.2 | 0.00 | 0.00 | 0.00 | 88 | 1006.5 |
| 20260507104103 | 12 | 225 | 38.6 | 69.2 | 0.00 | 0.00 | 0.00 | 89 | 1006.0 |
| 20260507103546 | 13 | 179 | 45.1 | 78.9 | 0.00 | 0.00 | 0.00 | 89 | 1006.1 |
| 20260507103043 | 13 | 175 | 45.1 | 72.4 | 0.00 | 0.00 | 0.00 | 88 | 1006.2 |
| 20260507102100 | 13 | 157 | 45.1 | 80.5 | 0.00 | 0.00 | 0.00 | 88 | 1006.0 |
| 20260507101557 | 13 | 132 | 45.1 | 80.5 | 0.00 | 0.00 | 0.00 | 88 | 1006.2 |
| 20260507100555 | 13 | 200 | 45.1 | 69.2 | 0.00 | 0.00 | 0.00 | 88 | 1006.6 |
| 20260507095552 | 13 | 171 | 37.0 | 62.8 | 0.00 | 0.00 | 0.00 | 86 | 1006.8 |
| 20260507095045 | 13 | 171 | 38.6 | 67.6 | 0.00 | 0.00 | 0.00 | 85 | 1007.1 |
| 20260507094054 | 13 | 185 | 43.5 | 67.6 | 0.00 | 0.00 | 0.00 | 85 | 1007.4 |
| 20260507093045 | 13 | 212 | 38.6 | 70.8 | 0.00 | 0.00 | 0.00 | 87 | 1007.4 |
| 20260507092544 | 13 | 168 | 40.2 | 61.2 | 0.00 | 0.00 | 0.00 | 88 | 1007.6 |
| 20260507092038 | 12 | 175 | 38.6 | 59.5 | 0.00 | 0.00 | 0.00 | 88 | 1007.7 |
| 20260507091101 | 12 | 146 | 38.6 | 69.2 | 0.00 | 0.00 | 0.00 | 88 | 1007.8 |
| 20260507090556 | 12 | 137 | 40.2 | 69.2 | 0.00 | 0.00 | 0.00 | 88 | 1008.0 |
| 20260507085602 | 12 | 237 | 37.0 | 61.2 | 0.00 | 0.00 | 0.00 | 89 | 1008.0 |
| 20260507085053 | 12 | 197 | 32.2 | 61.2 | 0.00 | 0.00 | 0.00 | 88 | 1008.5 |
| 20260507084101 | 12 | 214 | 30.6 | 54.7 | 0.00 | 0.00 | 0.00 | 88 | 1009.3 |
| 20260507083554 | 13 | 243 | 33.8 | 56.3 | 0.00 | 0.00 | 0.00 | 87 | 1008.4 |
| 20260507082602 | 13 | 175 | 30.6 | 61.2 | 0.00 | 0.00 | 0.00 | 87 | 1008.5 |
| 20260507082055 | 13 | 210 | 37.0 | 61.2 | 0.00 | 0.00 | 0.00 | 86 | 1008.2 |
| 20260507081549 | 13 | 178 | 40.2 | 61.2 | 0.00 | 0.00 | 0.00 | 87 | 1008.6 |
| 20260507081045 | 13 | 204 | 33.8 | 56.3 | 0.00 | 0.00 | 0.00 | 86 | 1008.9 |
| 20260507080116 | 13 | 191 | 41.8 | 62.8 | 0.00 | 0.00 | 0.00 | 86 | 1009.0 |
| 20260507075559 | 13 | 183 | 35.4 | 59.5 | 0.00 | 0.00 | 0.00 | 85 | 1009.3 |
| 20260507075052 | 13 | 225 | 37.0 | 62.8 | 0.00 | 0.00 | 0.00 | 85 | 1009.5 |
| 20260507074053 | 14 | 202 | 40.2 | 62.8 | 0.00 | 0.00 | 0.00 | 84 | 1009.4 |
| 20260507073551 | 14 | 205 | 41.8 | 67.6 | 0.00 | 0.00 | 0.00 | 84 | 1009.4 |
| 20260507072549 | 13 | 202 | 37.0 | 62.8 | 0.00 | 0.00 | 0.00 | 83 | 1009.8 |
| 20260507072045 | 13 | 190 | 41.8 | 62.8 | 0.00 | 0.00 | 0.00 | 83 | 1010.0 |
| 20260507071542 | 13 | 143 | 38.6 | 62.8 | 0.00 | 0.00 | 0.00 | 84 | 1010.1 |
| 20260507070552 | 13 | 185 | 33.8 | 62.8 | 0.00 | 0.00 | 0.00 | 84 | 1010.1 |
| 20260507065555 | 13 | 213 | 35.4 | 66.0 | 0.00 | 0.00 | 0.00 | 82 | 1010.2 |
| 20260507064554 | 13 | 159 | 35.4 | 56.3 | 0.00 | 0.00 | 0.00 | 81 | 1010.3 |
| 20260507063602 | 14 | 158 | 38.6 | 61.2 | 0.00 | 0.00 | 0.00 | 80 | 1010.0 |
| 20260507062554 | 15 | 235 | 37.0 | 69.2 | 0.00 | 0.00 | 0.00 | 77 | 1010.2 |
| 20260507062052 | 15 | 196 | 41.8 | 74.0 | 0.00 | 0.00 | 0.00 | 76 | 1010.0 |
| 20260507061054 | 15 | 195 | 41.8 | 66.0 | 0.00 | 0.00 | 0.00 | 72 | 1010.5 |
| 20260507060100 | 15 | 191 | 41.8 | 62.8 | 0.00 | 0.00 | 0.00 | 72 | 1010.5 |
| 20260507055101 | 15 | 186 | 41.8 | 66.0 | 0.00 | 0.00 | 0.00 | 71 | 1010.5 |
| 20260507054549 | 15 | 210 | 45.1 | 74.0 | 0.00 | 0.00 | 0.00 | 66 | 1011.1 |
| 20260507053550 | 15 | 221 | 40.2 | 66.0 | 0.00 | 0.00 | 0.00 | 66 | 1010.9 |
| 20260507052558 | 15 | 189 | 41.8 | 64.4 | 0.00 | 0.00 | 0.00 | 62 | 1011.4 |
| 20260507051606 | 15 | 223 | 37.0 | 56.3 | 0.00 | 0.00 | 0.00 | 63 | 1011.7 |
| 20260507050553 | 15 | 243 | 37.0 | 61.2 | 0.00 | 0.00 | 0.00 | 64 | 1012.1 |
| 20260507050044 | 15 | 198 | 35.4 | 61.2 | 0.00 | 0.00 | 0.00 | 61 | 1011.8 |
| 20260507045053 | 15 | 219 | 35.4 | 67.6 | 0.00 | 0.00 | 0.00 | 63 | 1012.5 |
| 20260507044540 | 14 | 225 | 43.5 | 67.6 | 0.00 | 0.00 | 0.00 | 65 | 1012.3 |
| 20260507043600 | 14 | 171 | 43.5 | 67.6 | 0.00 | 0.00 | 0.00 | 65 | 1012.6 |
| 20260507042559 | 14 | 202 | 35.4 | 59.5 | 0.00 | 0.00 | 0.00 | 72 | 1013.1 |
| 20260507041600 | 14 | 233 | 37.0 | 56.3 | 0.00 | 0.00 | 0.00 | 74 | 1013.5 |
| 20260507041045 | 14 | 208 | 29.0 | 54.7 | 0.00 | 0.00 | 0.00 | 74 | 1013.8 |
| 20260507040109 | 14 | 229 | 29.0 | 61.2 | 0.00 | 0.00 | 0.00 | 76 | 1013.8 |
| 20260507035055 | 14 | 220 | 35.4 | 62.8 | 0.00 | 0.00 | 0.00 | 77 | 1013.7 |
| 20260507034539 | 14 | 189 | 35.4 | 64.4 | 0.00 | 0.00 | 0.00 | 78 | 1014.1 |